sat.trackr.live / text

‹ back to catalog

X-SAT

NORAD 37389 · 2011-015C

PAYLOAD ACTIVE UNKNOWN

§ Identity

Operator
Country
SING
Launch date
2011-04-20
Launch site
SRILR
Launch vehicle
Mass (kg)
RCS (m²)
0.47

Purposes: science

External: N2YO · Heavens-Above · Gunter

§ Orbital elements

Epoch: 2026-05-25T04:45:17.254368Z

Period
101.04 min
Inclination
98.3502°
Eccentricity
0.0015151
Mean motion
14.25199117 rev/d
Perigee alt
796.9 km
Apogee alt
818.7 km
Semi-major
7,186.0 km
B*
1.7869e-4
RAAN
123.3194°
Arg perigee
53.3479°
Mean anomaly
306.9092°
Rev number
78,440

§ Raw data

X-SAT1 37389U 11015C   26145.19811637  .00000379  00000+0  17869-3 0  99942 37389  98.3502 123.3194 0015151  53.3479 306.9092 14.25199117784408

JSON: /api/v1/satellites/37389 · /tle

For live sub-satellite position, see the globe view (requires WebGL).

§ Visibility from observer

Set your observer location to see the next 7 days of passes ≥ 10°. The values pass through the URL so the page stays shareable.

No JS? Fill the form by hand. The geolocation button needs JavaScript.